Wind_Speed
6 6 7 7 8 10 13 15 15 15 14 14 13 12 12 11 10 8 7 5 3 2 1 3 5 6 6 6 5 5 5 4 5 5 5 5 5 4 3 3 3 3 3 3 3 3 2 2 2
5 5 6 6 7 9 11 14 15 16 15 15 14 13 12 11 9 8 6 5 4 3 1 2 4 6 6 7 7 6 6 5 5 6 6 6 5 5 4 4 4 4 4 4 4 4 3 3 2
4 4 4 5 5 8 10 12 14 16 16 16 15 14 14 12 11 9 6 5 4 3 1 2 4 6 7 8 8 7 7 6 6 6 6 6 6 5 5 4 4 4 4 4 5 4 4 3 3
3 3 3 2 3 6 8 11 14 15 16 16 16 15 15 14 11 9 7 6 5 4 2 2 4 6 7 8 9 9 8 7 7 6 7 6 6 6 5 4 4 5 5 5 5 5 4 4 4
3 3 2 1 2 5 8 11 12 15 15 14 15 15 16 15 13 11 9 8 6 5 3 3 4 6 8 9 9 9 9 8 7 7 7 7 6 6 6 5 5 5 5 5 5 5 5 4 4
3 3 2 1 1 3 5 9 13 15 16 14 14 15 16 16 14 12 10 9 7 5 4 4 5 6 8 10 11 11 10 9 8 7 7 7 6 6 6 6 6 6 6 6 6 5 5 4 4
2 2 2 2 3 4 6 8 12 15 15 15 14 15 16 16 14 12 11 10 8 6 5 5 6 7 9 10 11 11 11 10 9 8 7 7 6 6 6 7 6 6 6 6 5 5 5 4 4
3 3 2 2 2 4 6 8 11 15 15 15 14 15 16 16 15 13 12 11 9 7 7 7 7 9 10 11 11 11 11 11 10 9 8 7 7 7 7 7 6 6 6 6 5 4 4 4 3
4 4 3 3 3 3 5 8 11 14 15 15 16 15 16 16 15 13 12 11 10 9 8 8 8 9 10 11 12 12 12 12 11 9 8 8 7 7 7 6 6 6 5 5 4 4 4 3 3
6 6 5 4 5 6 6 8 11 13 15 16 17 17 17 17 16 14 13 11 10 11 10 10 8 9 11 12 13 13 13 13 12 11 10 9 8 7 7 6 5 5 4 4 4 4 3 3 2
8 8 7 6 7 8 9 10 11 13 15 15 16 18 18 18 17 16 14 13 13 13 12 11 9 9 11 12 14 15 14 13 13 12 11 9 8 7 7 6 5 5 5 4 4 3 3 2 2
10 10 9 9 8 9 10 11 12 13 14 15 16 17 18 19 19 18 16 16 14 14 15 12 11 11 11 12 14 15 15 14 13 13 12 10 9 7 6 6 5 5 4 3 3 2 2 2 2
10 11 11 10 9 9 10 10 11 13 13 15 16 16 18 19 19 19 18 16 15 15 13 13 13 10 10 11 13 13 15 15 14 13 13 11 9 7 7 6 5 4 3 3 2 2 1 1 2
10 11 11 10 9 9 9 9 9 10 12 15 17 17 18 19 19 20 20 17 15 14 14 14 12 11 10 10 11 13 14 14 15 14 13 11 10 8 7 6 5 4 3 2 1 1 0 1 1
10 10 9 8 7 8 9 9 8 10 13 15 17 17 17 18 19 20 19 17 16 14 13 13 10 10 10 9 9 11 13 14 14 14 13 12 10 9 7 6 6 5 4 3 2 1 0 1 1
10 9 9 6 6 7 9 9 9 11 13 15 17 17 18 19 19 20 19 17 16 15 13 11 9 8 9 9 10 11 14 15 14 14 13 12 10 9 9 8 7 6 5 4 3 2 1 1 1
11 11 11 9 6 6 9 10 10 11 14 16 18 18 18 19 18 19 17 16 15 14 13 11 9 6 7 9 10 11 14 15 14 14 14 12 11 10 10 8 7 6 5 4 3 2 1 1 2
13 14 13 10 9 8 10 12 12 14 15 18 19 18 18 18 17 17 17 17 15 12 10 8 7 7 7 8 8 10 12 14 14 14 14 13 12 11 10 9 8 7 6 4 3 3 2 2 2
16 16 14 11 10 10 11 12 14 15 16 17 17 18 17 17 16 16 17 16 13 10 8 6 6 7 7 8 8 9 11 13 14 14 14 13 12 12 11 10 9 8 7 5 4 4 3 3 3
16 16 14 11 10 12 14 14 15 17 18 18 16 16 15 16 15 15 15 13 10 9 7 6 8 7 7 9 10 11 12 13 14 15 15 14 13 13 12 11 10 9 7 6 5 4 4 4 3
17 15 13 12 12 15 17 16 16 17 18 16 13 13 14 15 14 14 13 11 9 8 7 5 6 7 8 9 10 13 13 13 14 16 15 14 14 14 13 12 10 10 8 7 6 5 5 5 4
17 14 13 14 16 17 18 18 17 18 18 15 13 12 13 13 13 13 12 10 9 8 7 5 5 8 9 9 10 13 13 14 14 17 16 15 15 15 14 12 11 11 10 9 8 7 6 6 6
16 15 15 17 18 18 18 19 17 19 18 15 12 11 10 11 11 11 11 10 9 8 7 6 6 7 8 8 10 13 14 15 15 16 16 15 16 15 15 13 12 12 11 10 9 9 8 7 7
16 16 18 18 18 17 16 17 16 18 16 15 11 9 8 9 10 11 10 10 9 7 6 5 3 6 8 9 11 13 15 15 15 16 15 15 16 16 15 14 13 13 13 12 11 10 10 9 8
17 17 18 18 17 14 14 15 15 14 14 12 10 8 8 8 9 10 10 9 8 6 5 5 3 5 7 9 10 13 15 15 15 16 17 16 17 17 16 15 14 14 13 13 12 12 12 11 10
16 18 18 18 16 14 14 14 13 11 12 11 9 8 8 8 8 9 9 8 8 6 5 4 3 4 6 9 10 11 15 16 16 16 18 18 18 18 18 17 16 15 14 14 14 13 13 13 12
15 17 16 17 17 17 15 14 13 12 11 11 10 7 7 7 7 7 7 7 7 6 4 4 4 4 6 8 9 11 14 16 17 17 18 19 19 19 19 18 16 15 15 15 15 14 14 14 13
15 15 17 19 19 18 17 14 13 13 12 11 9 8 6 7 7 7 7 6 6 6 5 4 4 4 5 8 8 11 13 15 17 17 18 19 20 20 20 18 17 16 16 16 16 15 15 15 15
16 17 18 19 20 20 19 17 15 15 13 12 10 9 8 8 8 7 7 6 5 5 5 4 4 5 6 7 9 11 12 14 16 18 18 19 21 21 21 19 18 17 17 17 17 17 17 17 17
19 18 19 20 20 20 21 19 17 16 15 13 12 9 9 9 8 8 6 5 5 5 5 5 4 5 6 7 8 10 12 14 15 17 18 18 19 20 20 20 19 18 18 18 18 19 19 19 19
Wind_Direction
72 74 72 69 63 54 45 35 23 12 6 5 5 5 9 11 12 8 -0 8 357 354 289 217 215 219 221 223 226 235 250 263 275 281 286 290 293 295 298 305 315 324 331 337 343 346 344 337 345
72 77 77 68 56 46 43 34 18 9 5 3 4 6 8 8 10 5 4 6 355 352 314 230 223 223 224 226 229 235 246 258 269 277 284 287 291 291 296 305 310 318 322 323 327 331 327 323 331
70 73 78 70 57 35 35 31 14 5 0 359 2 6 8 10 8 2 5 14 9 2 333 257 230 223 226 227 230 235 242 252 262 272 279 283 287 287 294 302 305 313 316 316 318 321 320 320 320
56 64 72 82 53 37 31 21 7 357 356 355 359 3 7 11 11 9 8 13 9 3 346 279 239 229 228 229 233 234 238 247 255 265 274 281 283 284 288 293 298 304 306 310 314 318 317 314 310
27 32 49 70 43 47 30 16 359 350 350 354 354 358 2 11 12 8 6 11 5 353 335 293 251 233 231 231 232 232 235 242 252 260 266 275 279 280 282 283 290 298 303 308 313 314 310 307 308
5 12 329 2 67 36 25 3 351 346 347 350 352 355 356 4 7 6 1 6 5 349 334 298 264 242 234 232 232 232 234 240 246 253 258 269 276 277 280 281 288 297 300 304 308 309 305 303 307
325 334 334 20 48 29 15 351 341 338 343 345 347 351 350 357 3 3 356 356 356 344 325 307 274 252 240 235 233 232 232 235 239 244 250 259 268 272 279 283 286 294 298 303 309 309 308 308 308
296 296 294 320 5 10 350 335 325 329 336 339 341 344 346 351 356 357 352 347 344 337 321 304 276 255 243 235 230 229 230 230 233 238 243 251 260 265 273 280 284 291 297 302 307 309 311 315 315
281 269 289 309 314 351 336 315 319 324 329 333 337 338 341 345 347 350 347 339 335 330 319 303 282 255 242 233 229 229 228 227 228 232 237 244 253 259 266 275 282 287 293 301 304 305 308 314 318
270 264 273 291 304 314 311 302 309 314 321 325 330 334 336 339 340 343 340 332 330 324 310 301 285 257 244 238 231 228 225 223 224 227 233 241 249 254 264 273 278 280 287 295 298 299 304 316 326
263 260 264 272 287 292 287 284 291 301 313 323 326 327 330 332 333 335 335 329 323 320 309 295 287 264 252 245 233 226 224 222 221 224 229 237 245 252 261 267 270 274 280 286 289 293 300 319 327
266 260 261 266 270 272 274 276 283 296 307 318 324 327 331 331 331 332 332 329 320 314 306 292 289 274 259 249 236 228 225 222 223 225 227 233 241 247 253 262 267 268 268 274 279 290 300 320 343
273 265 262 260 259 260 265 271 282 296 307 316 324 328 331 332 329 330 329 327 320 311 301 286 290 282 262 255 237 230 225 223 221 222 227 230 235 239 243 253 250 242 247 249 258 278 287 329 18
274 272 265 261 259 258 263 270 279 299 311 318 322 326 330 330 331 331 329 327 321 309 296 288 284 278 260 253 236 229 221 217 217 221 223 228 227 227 235 236 227 226 222 223 232 259 316 12 52
274 274 263 260 261 266 267 273 287 300 310 318 323 326 331 333 332 328 327 327 321 309 298 286 281 268 252 245 230 217 211 208 210 214 218 220 220 222 223 213 215 211 205 206 206 192 108 59 85
267 262 249 254 257 265 271 280 292 297 307 316 321 323 328 331 329 325 323 325 321 314 305 290 281 271 243 235 223 211 205 202 206 209 210 209 210 209 204 205 206 201 197 197 200 191 187 111 115
259 251 244 245 246 259 272 277 289 296 311 315 318 323 329 329 328 327 325 328 322 316 306 290 276 264 247 226 212 203 202 198 201 204 202 202 202 200 198 200 197 194 194 199 204 199 181 154 134
257 253 250 248 255 265 273 279 293 302 309 315 319 323 328 330 329 331 329 330 326 320 308 290 261 250 249 224 206 200 197 196 197 199 199 199 198 198 197 197 194 195 198 203 206 203 187 166 146
258 256 254 254 255 264 272 275 289 297 304 313 320 323 329 331 331 332 331 330 328 322 313 296 261 246 244 225 210 202 200 200 198 196 197 198 198 198 199 199 198 199 202 204 206 206 199 178 158
258 259 258 252 255 265 268 269 281 293 297 303 311 321 331 333 333 333 335 332 330 325 315 288 253 241 230 222 212 205 203 203 203 199 196 196 197 199 199 200 199 200 204 206 202 198 195 187 174
255 256 256 252 252 259 268 272 277 282 286 296 306 317 327 330 332 334 339 339 338 330 320 292 250 234 226 219 205 196 197 202 203 200 198 198 200 201 201 204 203 204 209 209 204 199 197 191 180
250 249 252 252 250 251 260 269 272 277 279 289 303 314 323 324 329 334 336 336 335 329 322 299 251 229 220 212 201 194 197 201 201 200 202 203 203 204 205 207 208 208 211 212 212 208 202 195 189
248 244 248 253 255 256 257 263 266 271 273 282 296 310 317 323 328 335 337 336 330 321 318 303 248 221 213 216 210 203 202 203 203 201 201 205 205 206 205 207 213 216 217 217 216 214 210 205 200
242 243 248 253 256 257 254 258 262 262 265 271 285 306 315 325 331 335 337 337 337 328 322 315 249 219 219 212 211 210 207 205 205 203 203 206 206 206 206 210 215 218 221 222 220 218 215 212 210
239 244 250 251 252 248 248 259 271 267 269 277 287 304 321 327 332 335 334 334 339 332 322 317 283 228 214 210 210 208 208 207 207 207 207 208 207 207 209 211 215 218 220 222 223 224 223 222 220
242 245 249 252 250 241 249 268 276 274 277 281 291 307 321 330 334 331 331 334 337 331 318 310 284 239 216 211 210 209 208 208 208 208 208 208 209 210 213 217 220 224 224 225 227 229 230 229 231
239 243 246 248 248 244 248 260 268 279 286 289 288 292 311 325 322 325 328 330 334 336 323 304 271 248 227 216 211 209 206 208 210 209 210 211 212 214 218 220 224 224 226 227 231 233 234 234 237
234 239 242 244 248 249 247 255 271 280 290 295 290 287 289 305 312 313 318 321 327 331 325 305 274 247 234 222 218 213 210 212 213 213 215 216 215 217 219 221 224 227 228 231 234 237 239 240 243
231 233 236 242 246 250 251 253 262 276 279 284 291 289 277 294 300 302 305 307 320 326 323 305 280 252 241 235 229 223 218 217 218 217 219 219 219 219 220 220 224 229 232 235 238 242 244 245 247
229 234 238 242 246 248 253 257 259 270 270 274 284 283 287 285 290 291 302 304 307 314 316 304 280 263 254 244 234 228 223 222 221 221 222 222 221 220 222 224 227 233 238 241 243 245 246 249 251
Height
5905 5904 5903 5904 5904 5902 5900 5899 5898 5897 5896 5895 5894 5894 5893 5892 5891 5892 5889 5888 5887 5888 5888 5888 5889 5890 5891 5892 5893 5894 5894 5895 5895 5896 5896 5896 5895 5895 5895 5894 5893 5893 5892 5891 5891 5890 5890 5889 5889
5905 5904 5904 5904 5903 5901 5901 5899 5899 5898 5896 5895 5894 5894 5893 5892 5891 5889 5887 5887 5887 5887 5887 5888 5888 5889 5891 5892 5893 5893 5894 5895 5895 5896 5896 5896 5896 5895 5895 5894 5894 5893 5892 5891 5891 5890 5890 5889 5889
5906 5905 5905 5904 5903 5902 5900 5899 5899 5898 5897 5895 5895 5894 5893 5892 5891 5888 5887 5886 5886 5886 5887 5887 5888 5889 5890 5891 5892 5892 5893 5894 5895 5895 5896 5896 5896 5895 5895 5894 5894 5893 5892 5891 5891 5890 5890 5889 5889
5906 5906 5906 5905 5903 5901 5900 5899 5899 5898 5898 5896 5895 5894 5893 5892 5890 5888 5887 5886 5885 5886 5886 5886 5887 5888 5889 5890 5891 5892 5892 5893 5894 5895 5895 5896 5896 5895 5895 5894 5894 5893 5892 5891 5891 5890 5889 5889 5888
5906 5906 5906 5904 5902 5901 5900 5899 5899 5899 5898 5897 5895 5893 5892 5891 5890 5887 5885 5884 5884 5884 5885 5885 5886 5886 5887 5888 5889 5890 5891 5892 5893 5894 5895 5895 5895 5895 5895 5894 5893 5893 5892 5891 5891 5890 5889 5889 5888
5907 5906 5906 5904 5902 5901 5900 5900 5899 5899 5898 5897 5895 5893 5892 5891 5889 5887 5884 5884 5883 5883 5883 5884 5884 5885 5886 5887 5888 5889 5890 5891 5892 5893 5894 5894 5895 5895 5894 5894 5893 5892 5892 5891 5890 5890 5889 5889 5888
5907 5906 5905 5903 5902 5901 5901 5900 5898 5898 5897 5896 5894 5892 5891 5890 5889 5887 5884 5883 5883 5882 5882 5882 5883 5883 5884 5885 5886 5887 5888 5889 5891 5892 5893 5893 5894 5894 5894 5893 5893 5892 5891 5890 5890 5889 5889 5888 5888
5906 5906 5904 5902 5901 5900 5900 5899 5899 5898 5897 5895 5894 5892 5890 5889 5888 5887 5884 5882 5882 5881 5881 5881 5880 5881 5881 5882 5884 5885 5886 5888 5889 5890 5891 5892 5893 5893 5893 5892 5892 5891 5891 5890 5889 5889 5888 5888 5888
5905 5906 5903 5902 5900 5899 5899 5898 5898 5897 5896 5895 5893 5891 5889 5888 5887 5886 5884 5882 5880 5879 5879 5878 5878 5878 5879 5880 5881 5882 5884 5886 5887 5889 5890 5891 5891 5892 5892 5892 5891 5891 5890 5890 5889 5888 5888 5888 5888
5904 5903 5902 5901 5899 5898 5898 5898 5897 5896 5895 5894 5892 5890 5888 5886 5885 5884 5883 5881 5878 5877 5876 5876 5875 5875 5876 5877 5878 5880 5882 5884 5885 5887 5888 5889 5890 5890 5891 5891 5891 5890 5890 5889 5888 5888 5887 5887 5887
5902 5901 5900 5899 5898 5897 5897 5897 5896 5895 5894 5893 5891 5889 5887 5884 5883 5882 5880 5878 5876 5874 5873 5872 5872 5872 5873 5874 5875 5877 5879 5881 5883 5885 5887 5888 5889 5889 5890 5890 5890 5890 5889 5889 5888 5888 5887 5887 5887
5901 5899 5898 5897 5896 5896 5895 5895 5895 5894 5893 5892 5890 5888 5885 5882 5880 5879 5877 5875 5872 5871 5869 5868 5868 5868 5869 5870 5872 5874 5876 5879 5881 5883 5885 5886 5887 5888 5889 5889 5889 5889 5889 5888 5888 5887 5887 5887 5887
5898 5897 5896 5895 5893 5893 5893 5893 5893 5892 5891 5890 5888 5886 5883 5880 5877 5875 5873 5871 5869 5868 5866 5865 5865 5865 5865 5867 5868 5870 5873 5876 5879 5881 5883 5884 5885 5887 5888 5888 5888 5888 5888 5888 5888 5887 5887 5887 5886
5895 5895 5894 5893 5891 5891 5891 5891 5890 5889 5889 5888 5886 5884 5882 5878 5875 5872 5869 5866 5865 5864 5862 5862 5862 5862 5863 5864 5865 5867 5870 5873 5876 5879 5881 5882 5884 5885 5886 5887 5887 5888 5888 5888 5887 5887 5887 5887 5887
5893 5893 5892 5891 5890 5889 5889 5889 5887 5887 5886 5885 5884 5882 5879 5876 5872 5869 5866 5863 5862 5860 5859 5859 5858 5859 5859 5861 5862 5864 5867 5870 5873 5876 5879 5881 5882 5884 5885 5886 5887 5887 5887 5888 5888 5887 5887 5887 5887
5890 5890 5890 5889 5888 5887 5888 5887 5886 5885 5884 5883 5882 5880 5877 5874 5871 5867 5863 5861 5859 5858 5856 5855 5855 5855 5856 5858 5860 5862 5865 5868 5871 5874 5876 5879 5881 5882 5884 5885 5886 5886 5887 5887 5887 5887 5887 5887 5887
5887 5887 5886 5886 5885 5885 5885 5884 5883 5882 5882 5881 5880 5878 5875 5872 5869 5865 5861 5859 5857 5854 5853 5852 5852 5853 5854 5856 5858 5860 5863 5866 5869 5872 5875 5877 5879 5881 5883 5884 5885 5886 5887 5887 5887 5887 5887 5887 5887
5884 5883 5883 5883 5882 5882 5881 5880 5880 5879 5879 5879 5877 5875 5873 5870 5867 5863 5859 5857 5854 5852 5850 5849 5849 5851 5853 5855 5856 5858 5861 5863 5867 5870 5873 5875 5877 5880 5882 5883 5884 5886 5886 5887 5887 5887 5887 5887 5887
5880 5880 5880 5880 5879 5879 5878 5877 5877 5877 5877 5876 5875 5873 5871 5869 5866 5862 5859 5855 5853 5851 5849 5848 5848 5849 5851 5853 5855 5857 5859 5862 5865 5868 5871 5874 5876 5878 5880 5882 5884 5885 5886 5886 5886 5887 5887 5887 5887
5876 5876 5877 5877 5876 5876 5875 5875 5875 5875 5875 5874 5873 5871 5869 5866 5863 5861 5858 5855 5852 5850 5849 5848 5848 5848 5849 5851 5853 5855 5858 5861 5864 5867 5869 5872 5875 5877 5879 5881 5882 5884 5885 5886 5886 5886 5887 5887 5887
5872 5873 5873 5873 5873 5873 5872 5872 5872 5872 5871 5871 5870 5869 5867 5864 5862 5859 5856 5853 5851 5850 5848 5847 5846 5847 5848 5850 5851 5854 5856 5859 5862 5865 5868 5871 5873 5875 5877 5879 5881 5882 5884 5885 5885 5886 5886 5887 5887
5868 5868 5869 5869 5870 5870 5871 5870 5871 5869 5869 5868 5868 5866 5864 5862 5860 5857 5855 5852 5850 5849 5847 5845 5845 5845 5847 5848 5850 5853 5855 5858 5861 5864 5866 5869 5871 5874 5876 5877 5879 5881 5882 5883 5884 5885 5886 5886 5887
5864 5864 5865 5865 5866 5867 5867 5867 5868 5867 5866 5867 5866 5864 5862 5860 5858 5856 5853 5851 5849 5847 5845 5844 5843 5843 5844 5847 5849 5851 5854 5856 5859 5862 5864 5867 5869 5872 5874 5876 5877 5879 5881 5882 5883 5884 5885 5885 5886
5859 5860 5861 5861 5862 5863 5864 5864 5864 5863 5863 5863 5863 5861 5859 5857 5856 5854 5852 5850 5847 5845 5844 5843 5841 5843 5845 5846 5847 5849 5852 5854 5857 5860 5862 5865 5867 5870 5872 5874 5875 5877 5879 5880 5881 5882 5883 5884 5885
5854 5856 5857 5857 5858 5860 5860 5859 5861 5860 5859 5859 5859 5858 5856 5855 5853 5852 5850 5849 5847 5845 5844 5843 5842 5843 5844 5845 5846 5848 5850 5852 5855 5857 5860 5862 5865 5867 5870 5872 5873 5875 5876 5878 5879 5881 5881 5882 5883
5849 5851 5853 5854 5855 5856 5856 5856 5857 5856 5855 5854 5854 5854 5854 5852 5851 5850 5849 5847 5846 5844 5843 5842 5842 5842 5843 5844 5845 5846 5848 5850 5853 5855 5857 5860 5862 5864 5867 5869 5871 5873 5874 5876 5877 5878 5879 5880 5881
5845 5846 5848 5850 5850 5851 5852 5852 5852 5852 5852 5852 5851 5851 5850 5850 5849 5848 5847 5846 5844 5843 5842 5842 5841 5841 5842 5842 5843 5844 5846 5848 5850 5852 5855 5857 5859 5862 5864 5866 5869 5870 5871 5873 5874 5875 5877 5877 5878
5841 5843 5844 5845 5846 5847 5848 5849 5849 5849 5849 5849 5849 5848 5848 5847 5847 5846 5846 5845 5843 5842 5841 5841 5840 5840 5840 5840 5842 5843 5845 5846 5848 5850 5851 5853 5856 5858 5861 5863 5865 5867 5869 5870 5871 5872 5873 5874 5875
5837 5838 5839 5840 5842 5843 5844 5847 5846 5846 5846 5846 5845 5845 5846 5845 5845 5844 5844 5843 5842 5841 5840 5839 5839 5839 5839 5839 5840 5841 5842 5844 5845 5846 5848 5850 5852 5855 5857 5860 5862 5864 5865 5867 5868 5869 5870 5870 5871
5832 5833 5835 5836 5838 5839 5840 5844 5842 5843 5842 5842 5842 5843 5843 5843 5843 5842 5841 5841 5840 5839 5839 5838 5838 5838 5838 5838 5839 5839 5840 5841 5842 5844 5845 5847 5849 5851 5854 5856 5858 5860 5861 5863 5864 5864 5865 5866 5867